Location: Marcé
(47.5801°N, 0.3280°W)
Time: 15:57:47
(UTC+01:00)

Tiros 1 despin weight - Pass Details

Date: 17 December 2021
Orbit: 592 x 641 km, 48.2° (Epoch: 20 January)

Event Time Altitude Azimuth Distance (km) Brightness Sun altitude
Rises 09:41:58 0° 238° (WSW) 2,886 ? 6.6°
Reaches altitude 10° 09:44:19 10° 234° (SW) 1,973 ? 6.8°
Maximum altitude 09:48:44 56° 157° (SSE) 729 ? 7.4°
Drops below altitude 10° 09:53:07 10° 79° (E) 1,949 ? 7.9°
Sets 09:55:26 0° 75° (ENE) 2,847 ? 8.1°
